Mayport NS, FL

10:04 PM EDT on July 25, 2017 (GMT -0400)
Mayport Naval Station / Adm. David L. McDonald Field

Weather History for KNRB - March, 2013

Change the Weather History Date:

Thursday, March 28, 2013

  Actual Average Record
Temperature  
Mean Temperature 52 °F -  
Max Temperature 64 °F 70 °F 88 °F (2009)
Min Temperature 43 °F 56 °F 43 °F (2013)
Degree Days  
Heating Degree Days 12    
Growing Degree Days 2 (Base 50)    
Moisture  
Dew Point 38 °F    
Average Humidity 62    
Maximum Humidity 89    
Minimum Humidity 29    
Precipitation  
Precipitation 0.00 in - - ()
Sea Level Pressure  
Sea Level Pressure 30.27 in    
Wind  
Wind Speed 5 mph (NW)    
Max Wind Speed 14 mph    
Max Gust Speed -    
Visibility 10 miles    
Events      
Averages and records for this station are not official NWS values.
T = Trace of Precipitation, MM = Missing Value Source: NWS Daily Summary

Daily Weather History Graph

Daily Weather History Graph

Search for Another Location

Airport or City:

Trip Planner

Search our weather history database for the weather conditions in past years. The results will help you decide how hot, cold, wet, or windy it might be!

Date:

Astronomy

Mar. 28, 2013 Rise Set
Actual Time 7:19 AM EDT 7:42 PM EDT
Civil Twilight 6:55 AM EDT 8:06 PM EDT
Nautical Twilight 6:27 AM EDT 8:34 PM EDT
Astronomical Twilight 5:58 AM EDT 9:03 PM EDT
Moon 9:21 PM EDT (3/28) 7:54 AM EDT (3/28)
Length of Visible Light 13h 11m
Length of Day
12h 22m
Full, 98% of the Moon is Illuminated
Mar 28
Full
Apr 3
Last Quarter
Apr 10
New
Apr 18
First Quarter
Apr 25
Full

Hourly Weather History & Observations

Time (EDT) Temp. Windchill Dew Point Humidity Pressure Visibility Wind Dir Wind Speed Gust Speed Precip Events Conditions
12:52 AM 46.9 °F - 37.0 °F 68% 30.27 in 10.0 mi WSW 3.5 mph - N/A   Clear
1:52 AM 46.0 °F 43.9 °F 37.0 °F 71% 30.27 in 10.0 mi West 4.6 mph - N/A   Clear
2:52 AM 46.9 °F - 37.9 °F 71% 30.26 in 10.0 mi West 4.6 mph - N/A   Clear
3:52 AM 46.9 °F - 39.0 °F 74% 30.25 in 10.0 mi West 3.5 mph - N/A   Clear
4:52 AM 46.0 °F 44.8 °F 37.0 °F 71% 30.25 in 10.0 mi West 3.5 mph - N/A   Clear
5:52 AM 46.0 °F 44.8 °F 39.0 °F 76% 30.25 in 10.0 mi West 3.5 mph - N/A   Clear
5:58 AM 44.6 °F 42.2 °F 37.4 °F 76% 30.25 in 10.0 mi Variable 4.6 mph - N/A   Clear
6:52 AM 44.1 °F 41.5 °F 36.0 °F 73% 30.26 in 10.0 mi WNW 4.6 mph - N/A   Clear
7:52 AM 43.0 °F 41.3 °F 35.1 °F 74% 30.28 in 10.0 mi NW 3.5 mph - N/A   Clear
8:52 AM 48.0 °F - 36.0 °F 63% 30.29 in 10.0 mi NNW 5.8 mph - N/A   Clear
9:52 AM 53.1 °F - 33.1 °F 47% 30.31 in 10.0 mi North 8.1 mph - N/A   Clear
10:52 AM 57.9 °F - 30.0 °F 35% 30.31 in 10.0 mi NW 5.8 mph - N/A   Clear
11:52 AM 60.1 °F - 30.0 °F 32% 30.31 in 10.0 mi North 5.8 mph - N/A   Clear
12:52 PM 62.1 °F - 28.9 °F 29% 30.30 in 10.0 mi NW 4.6 mph - N/A   Clear
1:52 PM 61.0 °F - 39.9 °F 46% 30.29 in 10.0 mi NE 13.8 mph - N/A   Clear
2:52 PM 60.1 °F - 39.9 °F 47% 30.27 in 10.0 mi NNE 11.5 mph - N/A   Clear
3:52 PM 60.1 °F - 41.0 °F 49% 30.25 in 10.0 mi NE 11.5 mph - N/A   Clear
4:52 PM 59.0 °F - 39.9 °F 49% 30.24 in 10.0 mi NE 10.4 mph - N/A   Clear
5:52 PM 57.9 °F - 39.9 °F 51% 30.23 in 10.0 mi ENE 8.1 mph - N/A   Clear
6:52 PM 57.0 °F - 39.0 °F 51% 30.25 in 10.0 mi ENE 5.8 mph - N/A   Clear
7:52 PM 53.1 °F - 39.9 °F 61% 30.25 in 10.0 mi East 3.5 mph - N/A   Clear
8:52 PM 50.0 °F - 42.1 °F 74% 30.27 in 10.0 mi Calm Calm - N/A   Clear
9:52 PM 48.0 °F - 42.1 °F 80% 30.28 in 10.0 mi SSW 3.5 mph - N/A   Clear
10:52 PM 48.0 °F - 43.0 °F 83% 30.30 in 10.0 mi Calm Calm - N/A   Clear
11:52 PM 48.0 °F - 45.0 °F 89% 30.30 in 10.0 mi SW 3.5 mph - N/A   Clear